Location: Dompnac
(44.5644°N, 4.1026°E)
Time: 20:35:49
(UTC+00:00)

Okean 2 Rocket - Pass Details

Date: 19 September 2020
Orbit: 616 x 642 km, 82.5° (Epoch: 27 October)

Event Time Altitude Azimuth Distance (km) Brightness Sun altitude
Rises 18:22:42 0° 159° (SSE) 2,932 6.2 -7.3°
Reaches altitude 10° 18:25:11 10° 148° (SSE) 2,026 5.3 -7.8°
Maximum altitude 18:29:00 28° 89° (E) 1,198 4.0 -8.4°
Drops below altitude 10° 18:32:50 10° 31° (NNE) 2,029 5.5 -9.1°
Sets 18:35:18 0° 20° (NNE) 2,937 6.4 -9.5°
